[Date Prev][Date Next][Thread Prev][Thread Next] - [Date Index][Thread Index][Author Index]

2 Line ISS Keps 6-20



ISS
1 25544U 98067A   05170.79565972  .00016816  00000-0  12485-3 0  7255
2 25544 051.6456 247.5353 0003953 278.9110 223.7996 15.72994051376092
----
Via the sarex mailing list at AMSAT.ORG courtesy of AMSAT-NA.
To unsubscribe, send "unsubscribe sarex" to Majordomo@amsat.org



AMSAT Top AMSAT Home